#timestamp,LO_Frequency,Hit,StdDev 
1510790415.5,286046959.5,N
1510790435.3,286046958.8,N
1510790455.2,286046958.4,N
1510790475.0,286046960.1,N
1510790475.9,286046960.1,N
1510790495.7,286046963.0,N
1510790515.6,286046965.1,N
1510790535.4,286046961.7,N
1510790555.2,286046968.6,N
1510790575.1,286046970.7,N
1510790576.0,286046970.7,N
1510790595.8,286046968.0,N
1510790615.6,286046966.5,N
1510790635.5,286046966.2,N
1510790655.3,286046970.0,N
1510790675.1,286046969.0,N
1510790695.9,286046967.9,N
1510790715.7,286046969.4,N
1510790735.5,286046974.0,N
1510790755.4,286046968.3,Y
1510790775.2,286047002.0,P
1510790795.0,286047008.6,N
1510790795.9,286047008.6,N
1510790815.8,286047007.0,N
1510790835.6,286047012.4,N
1510790855.4,286047012.2,N
1510790875.3,286047013.8,N
1510790895.1,286047016.9,N
1510790896.0,286047016.9,N
1510790915.8,286047023.1,N
1510790935.6,286047033.0,N
1510790955.5,286047041.0,N
1510790975.3,286047043.8,N
1510790995.1,286047050.6,N
1510791015.9,286047053.1,N
1510791035.7,286047059.8,N
1510791055.5,286047061.8,N
1510791075.4,286047066.5,N
1510791095.2,286047063.3,N
1510791115.0,286047060.9,N
1510791115.9,286047060.9,N
1510791135.8,286047066.1,N
1510791155.6,286047071.4,N
1510791175.4,286047072.6,N
1510791195.3,286047078.7,N
1510791215.1,286047073.3,N
1510791216.0,286047073.3,N
1510791235.8,286047074.0,N
1510791255.6,286047076.5,N
1510791275.5,286047080.9,N
1510791295.3,286047078.0,N
1510791315.1,286047075.2,N
1510791335.9,286047080.2,Y
1510791355.7,286047034.2,P
1510791375.5,286047032.9,P
1510791395.4,286047032.2,P
1510791415.2,286047034.4,Y
1510791435.0,286046993.1,P
1510791435.9,286046993.1,N
1510791455.8,286046990.8,N
1510791475.6,286046983.0,N
1510791495.4,286046984.9,N
1510791515.3,286046979.2,N
1510791535.1,286046980.3,N
1510791555.8,286046980.9,N
1510791575.7,286046977.2,N
1510791595.5,286046972.7,N
1510791615.3,286046968.0,N
1510791635.2,286046963.0,N
1510791655.9,286046969.1,N
1510791675.7,286046964.9,N
1510791695.6,286046961.8,N
1510791715.4,286046958.6,N
1510791735.2,286046953.5,N
1510791755.0,286046953.0,N
1510791755.9,286046953.0,N
1510791775.8,286046954.6,N
1510791795.6,286046954.7,N
1510791815.4,286046949.7,N
1510791835.3,286046947.8,N
1510791855.1,286046947.3,N
1510791875.8,286046951.2,N
1510791895.7,286046947.3,N
1510791915.5,286046937.7,Y
1510791935.3,286046972.7,P
1510791955.2,286046976.3,P
1510791975.9,286046974.1,P
1510791995.7,286046978.7,Y
1510792015.6,286047004.3,P
1510792035.4,286046999.9,N
1510792055.2,286047005.8,N
1510792075.1,286046997.0,N
1510792076.0,286046997.0,N
1510792095.8,286046993.0,N
1510792115.6,286046985.7,N
1510792135.5,286046979.1,N
1510792155.3,286046982.5,N
1510792175.1,286046985.1,N
1510792195.8,286046991.9,N
1510792215.7,286046996.0,N
1510792235.5,286046990.3,N
1510792255.3,286046993.3,N
1510792275.2,286046996.3,N
1510792295.0,286046997.9,N
1510792295.9,286046997.9,N
1510792315.7,286046992.5,N
1510792335.6,286046985.9,N
1510792355.4,286046983.2,N
1510792375.2,286046979.7,N
1510792395.1,286046974.3,Y
1510792396.0,286046974.3,P
1510792415.8,286046986.3,N
1510792435.6,286046987.8,N
1510792455.5,286046982.9,N
1510792475.3,286046986.3,N
1510792495.1,286046983.8,Y
1510792515.9,286046996.7,P
1510792535.7,286046998.9,N
1510792555.5,286047001.1,N
1510792575.4,286046997.1,N
1510792595.2,286046992.0,N
1510792615.0,286046986.9,N
1510792615.9,286046986.9,N
1510792635.8,286046987.9,N
1510792655.6,286046983.1,N
1510792675.4,286046980.2,Y
1510792695.3,286046991.3,P
1510792715.1,286046991.3,P
1510792716.0,286046991.3,P
1510792735.8,286046989.5,Y
1510792755.7,286046994.0,P
1510792775.5,286046996.0,P
1510792795.3,286046995.8,N
1510792815.2,286046995.5,N
1510792835.9,286046997.8,N
1510792855.7,286046994.0,Y
1510792875.6,286046996.7,P
1510792895.4,286046995.1,P
1510792915.2,286046991.0,P
1510792935.1,286046987.8,Y
1510792936.0,286046987.8,P
1510792955.8,286046997.6,N
1510792975.6,286046998.3,N
1510792995.5,286046996.9,N
1510793015.3,286046997.7,N
1510793035.1,286047002.2,N
1510793055.8,286047004.7,N
1510793075.7,286047008.0,N
1510793095.5,286047012.1,N
1510793115.3,286047012.5,N
1510793135.2,286047012.6,N
1510793155.9,286047013.7,N
1510793175.7,286047015.7,N
1510793195.6,286047011.0,N
1510793215.4,286047009.2,N
1510793235.2,286047006.8,N
1510793255.1,286047009.9,N
1510793256.0,286047009.9,N
1510793275.8,286047011.1,N
1510793295.6,286047020.4,N
1510793315.5,286047029.1,Y
1510793335.3,286047029.4,P
1510793355.1,286047034.8,P
1510793375.9,286047037.3,P
1510793395.7,286047045.4,Y
1510793415.5,286047022.6,P
1510793435.4,286047030.6,P
1510793455.2,286047037.1,P
1510793475.0,286047042.3,Y
1510793475.9,286047042.3,P
1510793495.8,286047014.2,N
1510793515.6,286047018.0,N
1510793535.4,286047020.5,N
1510793555.3,286047019.0,N
1510793575.1,286047020.1,N
1510793576.0,286047020.1,N
1510793595.8,286047020.8,N
1510793615.7,286047020.5,N
1510793635.5,286047022.8,Y
1510793655.3,286047007.3,P
1510793675.2,286047003.4,N
1510793695.9,286047003.0,N
1510793715.7,286047000.0,N
1510793735.5,286047003.4,N
1510793755.4,286047007.2,N
1510793775.2,286047008.6,N
1510793795.0,286047003.5,N
1510793795.9,286047003.5,N
1510793815.8,286046997.2,N
1510793835.6,286047000.3,N
1510793855.4,286046999.3,N
1510793875.3,286046993.0,N
1510793895.1,286046994.1,N
1510793915.8,286046997.9,N
1510793935.7,286046998.9,N
1510793955.5,286047000.0,N
1510793975.3,286046993.4,N
1510793995.2,286046996.7,N
